Terminal Aerodrome Forecast
Issued by NWS Louisville, KY

Home | Current Version | Previous Version | Text Only | Print | Product List | Glossary On
Versions: 1 2 3 4 5 6 7 8 9 10 11 12 13 14 15
877
FTUS43 KLMK 302159 AAB
TAFBWG
TAF AMD
KBWG 302159Z 3022/0118 17015G25KT P6SM VCSH BKN080
     FM010200 17015G25KT 6SM SHRA VCTS BKN040CB
      TEMPO 0103/0106 3SM -TSRA BKN025CB
     FM010800 23013KT 6SM -SHRA BKN040
     FM011200 23015G25KT P6SM SCT040 BKN070=

USA.gov is the U.S. government's official web portal to all federal, state and local government web resources and services.